Wind_Speed
3 6 9 9 8 7 8 8 7 6 6 7 6 8 10 9 10 15 14 10 12 10 8 10 9 12 11 11 10 8 8 7 6 6 4 4 4 6 9 12 12 11 11 14 16 17 21 23 25 27 26 24 23 23 24 26 25 24 25 24 24 24 23 23 22 20 20 20 20 18 16 16 14 12 12 11 11 10 9 9 9 9 9 9 10 12
3 9 8 7 6 4 5 6 9 8 7 5 5 9 9 7 11 14 12 11 12 9 7 11 8 12 10 10 10 8 8 6 5 5 4 4 6 8 12 14 13 11 12 18 21 21 23 24 26 26 25 25 23 23 23 24 25 24 24 24 24 25 24 24 24 23 23 23 22 21 21 21 19 17 16 14 13 12 11 10 9 9 8 8 10 11
6 8 7 6 5 4 2 5 13 11 6 3 5 8 8 9 11 9 8 12 13 7 6 10 6 9 9 9 9 8 8 6 6 4 3 6 9 10 12 14 15 15 15 18 22 25 28 27 25 22 21 23 22 23 23 24 25 24 23 24 25 25 25 24 24 24 24 24 23 24 24 24 23 21 19 17 15 13 12 11 10 10 9 8 10 11
6 6 6 4 5 6 3 6 14 12 5 3 5 8 7 11 12 8 9 15 14 6 4 10 3 7 7 8 9 7 7 5 3 1 3 6 9 11 13 14 16 17 17 19 22 27 30 25 21 22 22 23 23 23 23 23 23 22 23 25 26 26 25 25 24 24 25 25 25 25 26 25 24 23 20 19 17 14 14 14 13 14 11 9 10 11
7 4 5 5 4 10 8 8 12 10 5 4 5 10 10 12 13 11 12 15 12 2 4 8 3 6 5 6 6 5 5 3 1 3 5 7 10 12 14 15 17 18 18 20 21 24 24 20 20 23 24 24 23 22 22 22 21 22 24 26 26 27 26 26 25 25 25 25 25 25 26 25 24 23 22 20 20 18 19 18 18 17 15 13 13 12
8 3 3 6 7 11 9 7 10 10 6 2 5 12 14 15 15 13 14 13 8 2 3 7 7 1 5 6 4 4 3 1 2 5 7 8 11 14 15 16 18 18 18 20 21 21 20 20 23 26 26 25 23 22 22 21 22 24 26 26 27 26 26 26 25 25 26 25 25 25 25 24 24 24 22 21 22 21 21 21 19 18 17 17 16 14
5 3 3 7 8 10 9 6 8 9 7 4 9 15 15 14 13 13 13 9 6 6 2 2 8 7 1 6 5 3 1 3 4 6 8 9 12 14 15 16 18 18 18 19 20 20 20 23 26 26 26 24 22 21 22 23 24 26 28 28 28 28 26 25 25 25 25 25 25 26 26 25 25 25 23 23 23 22 22 21 20 19 19 19 20 19
5 5 6 8 8 9 9 6 8 9 6 6 13 17 15 14 13 11 11 7 5 7 3 4 10 9 5 3 5 2 2 3 5 8 11 11 13 16 17 18 19 18 17 17 16 18 23 25 26 26 24 22 22 23 24 25 26 27 29 30 29 27 25 25 25 26 25 25 25 25 24 23 23 24 24 23 22 20 19 19 20 20 21 22 23 24
4 6 6 7 7 8 8 7 7 8 6 7 14 17 14 14 13 10 7 6 7 6 3 9 12 9 7 2 6 3 3 5 8 11 13 14 15 18 19 20 19 17 17 18 17 19 24 26 26 25 22 22 24 26 26 27 27 28 29 28 26 25 24 25 26 27 25 22 22 20 19 20 20 19 19 18 17 16 16 18 19 20 21 22 23 24
2 5 4 4 6 7 9 8 5 5 6 10 15 16 13 10 9 8 4 5 8 5 5 13 13 9 8 1 3 1 4 7 10 10 12 14 16 19 20 21 19 16 15 18 19 22 25 24 25 24 22 25 27 26 26 26 27 29 29 27 25 25 25 24 26 27 23 19 18 17 17 18 18 18 16 16 15 15 16 17 19 20 21 22 22 22
4 3 1 1 5 7 11 9 4 4 8 12 14 15 10 5 5 4 2 3 6 4 8 14 13 10 8 1 2 3 4 6 8 9 12 15 18 19 19 19 18 15 14 16 20 23 23 23 24 24 24 27 28 26 24 25 27 29 28 26 25 25 25 23 24 27 24 21 19 18 18 17 17 17 16 16 16 16 17 18 19 20 20 21 22 23
5 2 1 2 2 6 11 8 4 7 8 11 11 11 7 2 3 2 1 2 5 5 10 14 13 11 10 4 3 3 2 4 6 10 14 16 19 20 18 17 16 15 15 15 17 20 21 22 24 25 26 28 28 24 24 26 28 28 27 25 25 25 24 22 23 24 23 22 20 19 18 17 17 17 16 16 17 18 18 19 20 21 22 22 23 24
5 2 2 3 2 6 9 7 2 3 5 11 10 10 9 6 5 4 5 6 4 6 11 15 12 10 8 3 3 3 2 4 6 9 12 15 19 20 18 17 15 14 15 15 15 17 19 21 25 27 28 27 25 24 25 28 28 27 25 23 24 24 23 23 23 22 21 21 20 19 18 18 18 17 17 18 18 19 19 21 22 23 24 25 26 26
2 4 2 2 1 6 9 7 6 5 7 11 11 11 9 7 8 7 7 8 6 7 12 14 9 7 8 1 4 4 4 4 7 10 11 14 18 19 17 16 15 14 14 14 14 16 19 22 26 28 25 24 24 25 28 28 26 25 23 23 24 23 23 22 22 21 21 20 20 19 19 19 20 19 19 20 20 21 21 23 24 25 26 26 26 27
3 1 4 4 2 6 8 7 5 6 5 8 9 8 6 4 4 6 6 8 9 10 13 11 5 8 11 2 7 5 3 3 8 10 12 15 17 17 15 15 14 14 14 13 14 17 21 25 27 25 23 24 25 27 27 26 24 24 24 24 24 23 23 22 22 22 22 21 21 21 21 21 21 20 21 21 21 22 23 24 25 25 25 25 24 24
6 1 4 5 5 6 6 6 5 6 3 5 6 5 6 4 3 6 7 9 11 11 10 5 4 7 6 5 9 4 2 6 10 12 14 17 17 15 14 13 13 13 14 14 14 17 22 26 25 23 23 25 26 27 26 24 24 25 25 24 24 23 23 23 23 23 22 22 21 21 21 20 20 20 20 20 21 22 22 23 23 23 23 22 22 22
6 1 6 6 7 8 6 6 7 7 3 4 5 6 7 5 4 5 8 9 9 9 7 5 7 8 4 5 8 1 7 10 12 15 16 17 18 16 13 12 13 13 14 15 16 18 23 25 24 22 24 26 26 26 24 24 25 25 24 24 23 23 22 22 23 22 22 21 21 20 19 19 19 20 20 20 21 21 21 21 21 21 21 21 22 22
4 4 4 6 5 6 6 8 10 9 6 4 4 7 7 4 4 4 6 6 6 7 6 6 9 11 8 2 2 5 13 13 14 18 18 18 18 15 13 13 13 14 15 17 18 21 23 24 23 23 24 26 27 24 24 25 25 24 23 23 23 23 23 23 22 22 22 21 21 20 19 19 20 20 20 21 21 21 21 21 21 21 22 22 22 22
3 4 2 4 4 6 7 4 6 7 8 5 2 4 5 1 2 5 4 5 7 9 7 5 8 9 7 6 7 10 14 15 17 19 19 19 18 15 14 14 14 14 15 16 17 19 23 23 22 23 24 25 25 23 23 24 24 24 23 22 22 22 22 22 22 22 22 21 20 19 20 21 21 21 22 22 22 21 21 22 22 22 23 23 22 22
2 2 1 2 4 6 6 3 1 3 5 5 3 1 2 2 3 2 1 3 6 8 8 8 9 7 4 5 8 9 11 15 19 19 18 18 17 15 13 13 13 14 15 15 15 18 22 23 22 23 24 24 23 22 23 24 25 24 23 22 22 22 22 22 22 22 21 21 20 20 21 22 22 22 22 22 22 22 22 23 23 23 23 23 23 22
2 2 2 2 3 5 3 1 2 3 2 1 1 3 3 2 1 2 2 0 3 6 8 10 10 7 3 2 5 9 12 15 17 18 17 16 16 15 13 12 12 12 16 16 15 19 23 23 23 23 23 23 22 21 22 23 23 23 22 22 23 22 22 22 22 22 21 21 21 21 22 22 22 22 22 22 22 23 23 23 23 23 23 23 23 23
2 3 4 6 3 1 2 4 4 4 3 2 3 1 2 3 2 4 2 2 1 6 8 8 11 10 2 3 4 10 13 14 17 18 17 15 15 14 12 13 11 12 16 16 16 22 23 22 24 23 20 21 21 21 22 23 22 22 23 22 22 22 22 22 22 22 22 21 21 22 22 22 22 22 22 23 23 23 22 22 22 23 23 24 24 23
2 3 5 6 4 2 6 7 6 6 5 1 0 2 2 1 2 4 5 3 4 7 7 7 10 9 1 5 5 12 12 14 16 17 16 14 14 13 12 13 11 11 15 16 18 23 23 22 24 22 19 19 20 20 22 23 22 22 22 22 22 22 22 23 23 22 22 22 22 23 23 23 22 22 23 23 23 23 23 23 23 23 23 24 24 23
0 2 5 6 0 5 6 5 3 4 3 3 3 3 3 2 1 2 4 4 5 7 7 6 8 7 1 2 9 13 13 15 15 15 17 14 12 12 12 12 11 12 15 17 19 22 22 22 22 20 18 18 19 20 21 22 22 22 22 22 22 23 23 23 22 22 22 23 23 23 23 23 23 23 23 23 23 23 24 24 23 23 23 24 24 23
1 2 5 6 4 1 1 1 1 1 2 3 3 4 4 5 4 3 2 2 4 6 6 6 8 7 5 8 13 15 14 16 15 15 16 13 12 12 11 11 11 11 14 17 18 20 21 22 21 19 18 18 18 20 22 22 22 22 22 22 22 23 23 23 22 23 23 23 24 24 23 23 23 23 23 23 23 23 24 24 23 23 23 23 24 23
3 3 4 5 6 6 5 5 4 3 4 3 4 7 6 6 6 3 3 4 6 7 7 7 10 11 12 14 16 15 15 16 17 16 14 13 12 11 10 10 10 11 14 17 17 17 19 21 20 19 19 18 18 20 21 21 22 23 23 22 22 22 23 23 23 23 24 24 24 24 24 24 24 24 24 24 23 23 24 24 24 24 24 23 24 24
3 3 3 3 4 6 8 10 10 9 8 8 4 6 7 7 6 4 3 5 7 9 9 10 12 16 19 18 17 16 15 16 17 16 15 13 12 11 10 10 10 11 13 15 16 17 19 21 20 19 18 18 19 19 20 21 22 23 23 23 23 22 22 23 23 24 24 24 24 24 24 24 24 24 24 24 24 24 24 24 24 24 24 24 24 24
3 3 2 3 7 10 12 15 15 12 11 12 10 5 7 8 8 6 6 8 7 7 8 9 11 16 19 19 19 16 15 16 16 16 15 13 12 11 11 11 11 12 13 14 15 17 18 19 20 20 20 20 20 20 20 21 21 22 22 23 23 23 23 23 23 25 24 24 24 25 25 25 25 25 24 24 24 25 25 25 24 24 24 23 23 23
4 3 1 1 8 13 15 17 16 13 12 12 11 10 8 9 11 10 11 11 8 7 11 14 16 18 19 19 17 14 13 15 16 15 14 13 13 12 12 13 12 12 15 16 17 17 17 18 19 20 21 22 21 21 21 20 20 21 22 22 23 23 23 23 24 24 24 24 24 25 25 26 26 26 25 25 25 25 25 25 24 24 24 23 22 22
3 2 2 2 9 14 15 14 12 11 12 12 12 12 11 11 13 13 13 13 12 15 17 19 21 20 17 15 13 11 12 12 13 13 13 13 13 12 12 13 13 13 14 15 16 16 17 19 20 20 21 22 21 21 21 20 20 21 22 22 23 23 23 23 24 24 24 24 25 25 26 26 26 26 26 26 26 25 26 25 24 24 24 24 24 23
2 1 2 1 8 12 9 8 8 9 11 12 13 12 11 12 13 13 13 12 13 16 17 18 19 16 12 10 11 11 11 11 13 14 14 13 11 12 12 12 13 13 13 12 13 15 17 19 20 20 20 21 21 21 20 19 21 21 21 22 23 23 23 23 24 24 24 25 25 25 26 26 26 27 27 27 26 26 27 26 25 25 26 26 25 25
1 2 1 1 7 8 2 3 7 9 8 10 13 13 13 12 10 10 10 10 11 13 15 14 13 11 8 9 12 12 12 13 14 14 13 11 11 11 12 12 13 14 13 12 13 15 18 19 19 20 20 21 20 20 20 20 21 21 21 22 23 23 23 23 23 24 24 25 25 25 25 26 26 27 28 27 26 27 27 27 26 26 27 26 26 25
1 3 3 2 6 7 4 7 11 9 6 6 6 9 14 14 12 11 10 11 13 12 11 9 9 10 11 12 13 14 13 14 14 12 11 11 11 11 10 11 13 13 13 12 12 15 18 19 20 21 21 20 20 20 21 21 21 22 22 23 23 23 22 22 23 24 24 24 25 25 25 25 26 27 28 28 27 27 28 28 28 28 27 27 26 25
1 3 3 2 3 7 9 12 10 5 4 2 2 4 10 12 12 12 12 13 13 12 10 11 12 13 14 13 13 14 14 13 13 13 11 9 9 9 10 11 12 12 12 11 11 15 20 21 21 21 21 20 20 20 21 20 20 21 22 22 23 22 22 22 23 23 24 24 24 25 25 25 26 27 29 29 28 27 28 29 30 29 29 28 26 24
2 3 2 0 2 6 8 9 7 4 1 2 3 3 4 7 9 12 16 17 16 16 15 16 16 15 14 13 13 13 13 13 14 15 13 8 6 7 9 11 12 12 11 10 11 15 20 21 21 21 21 20 20 20 20 20 20 21 22 22 22 21 21 22 22 23 23 23 24 25 25 26 26 27 28 29 28 27 28 29 29 30 29 27 24 24
2 2 2 2 3 5 6 4 5 7 3 4 4 2 2 4 7 10 14 14 15 16 15 14 15 14 13 13 12 11 11 12 13 13 9 5 4 5 8 9 11 11 11 11 12 16 20 21 20 20 21 20 20 20 20 20 21 22 22 22 21 20 20 21 22 22 22 23 24 25 25 26 27 27 28 28 28 27 28 28 28 29 28 26 25 24
3 2 2 2 2 2 6 5 7 11 7 3 3 4 5 3 3 5 9 10 10 12 12 12 13 12 12 12 10 9 10 11 10 5 5 5 4 5 8 9 10 12 13 13 13 15 18 20 19 20 20 20 20 20 19 20 21 22 23 21 20 20 20 20 20 21 22 24 24 25 26 26 27 28 28 28 28 27 27 28 28 28 27 25 26 25
3 3 2 3 2 1 5 7 6 8 6 1 3 5 6 2 1 2 6 10 8 10 12 11 11 11 10 10 8 7 7 9 8 2 5 4 4 6 9 10 10 11 12 13 14 15 17 19 19 19 20 20 20 19 19 20 21 22 22 21 20 20 20 19 20 21 22 24 24 26 26 26 27 27 27 28 28 27 28 28 28 27 26 25 26 26
3 3 2 3 4 3 4 6 4 5 4 2 6 7 6 3 3 3 4 5 5 10 11 11 10 10 9 7 6 4 5 6 7 4 1 2 6 7 8 10 10 11 11 11 13 15 16 18 19 19 19 19 20 20 19 20 20 20 20 20 20 20 20 20 20 21 23 24 25 26 26 26 26 27 27 28 28 28 29 28 27 26 26 25 25 25
4 3 4 5 5 4 4 4 4 6 5 3 9 8 6 6 6 3 6 3 5 9 9 9 9 9 7 5 4 4 4 6 7 6 5 7 8 8 7 9 10 10 11 12 13 14 15 17 19 19 18 19 20 20 19 19 18 18 19 19 20 20 20 21 22 23 23 24 25 25 26 26 26 26 26 28 28 29 29 27 26 25 26 26 25 23
4 3 4 5 5 4 5 4 5 7 4 4 9 10 9 7 5 4 6 2 4 7 8 8 8 8 5 5 5 5 6 7 8 8 9 8 9 8 8 8 9 9 10 12 12 13 14 15 17 17 17 18 19 20 19 18 18 18 18 18 19 19 20 21 23 23 23 24 25 26 25 26 26 26 27 27 27 27 27 25 25 25 26 26 24 23
2 3 3 3 4 4 4 5 6 7 2 7 10 10 9 5 3 4 2 1 3 4 4 7 7 6 6 7 7 7 8 8 9 10 9 9 9 9 8 8 8 9 10 11 11 13 14 14 16 17 17 17 18 18 18 18 18 18 18 17 18 20 21 21 22 22 23 24 25 26 26 26 26 26 26 26 25 25 26 26 25 25 24 24 24 24
2 2 3 3 3 3 4 4 5 7 2 12 12 7 6 6 4 3 1 2 3 3 4 6 6 5 6 7 8 9 9 9 10 10 9 9 9 9 9 8 8 9 10 10 11 13 15 15 16 17 17 17 18 17 17 18 19 18 17 18 19 20 20 20 21 22 23 24 25 26 26 25 25 25 24 24 24 24 25 25 24 23 22 22 23 23
3 3 3 2 2 1 3 4 3 4 4 14 11 4 7 9 5 2 3 5 4 4 4 5 5 6 7 7 8 9 9 9 10 10 9 9 9 9 9 8 8 9 9 9 10 12 14 15 17 18 18 17 17 17 17 18 18 18 18 19 19 19 19 20 21 22 23 24 25 26 26 24 23 23 22 22 23 23 23 23 23 22 20 21 21 20
5 4 2 3 3 4 6 9 7 4 3 11 12 9 10 10 7 4 5 6 6 4 4 4 5 6 6 7 8 8 8 9 9 9 9 8 8 9 9 8 8 8 9 9 10 12 13 15 17 18 18 17 17 17 17 16 16 19 20 19 18 19 19 20 22 22 23 24 24 25 25 25 22 20 20 21 21 21 21 21 21 20 19 19 19 17
4 3 1 2 4 6 11 15 14 12 10 10 12 11 11 10 6 5 7 8 7 6 5 4 5 5 6 7 7 8 8 9 9 9 9 8 9 9 9 9 8 8 8 9 10 10 12 14 16 17 17 17 17 16 16 15 15 18 19 18 18 19 20 21 23 24 23 23 23 23 23 23 20 19 19 20 19 18 18 18 19 19 18 18 17 17
4 4 3 5 4 4 7 9 10 12 13 11 10 9 9 10 8 7 8 8 7 6 6 6 6 6 6 8 9 9 9 9 9 9 8 7 8 9 9 10 9 8 8 9 10 10 11 14 15 15 16 18 17 15 15 14 14 16 18 19 19 20 21 22 24 25 25 24 22 21 20 19 19 20 20 19 18 17 16 16 17 17 17 18 18 18
3 4 5 8 8 8 10 11 11 13 14 12 10 9 8 9 10 10 9 8 6 6 7 7 7 6 7 8 9 10 10 9 9 9 7 7 8 9 9 9 9 9 9 9 9 9 10 12 14 15 16 17 16 15 15 14 14 15 17 19 19 20 21 22 23 25 26 25 22 19 18 18 18 19 20 19 18 17 16 16 17 16 16 17 18 18
4 3 5 5 7 10 13 15 14 14 14 13 13 12 10 9 9 10 9 8 8 8 8 8 9 9 9 9 9 9 10 9 9 9 8 7 8 9 9 9 9 9 10 9 9 9 9 12 14 14 16 16 15 14 15 14 14 16 17 18 19 19 21 22 23 24 24 23 20 18 17 17 17 17 18 19 19 18 16 16 16 17 17 17 17 18
4 6 6 4 5 8 9 9 7 7 10 11 9 10 11 9 8 9 9 9 10 10 9 9 10 10 11 12 11 10 9 9 9 10 9 9 9 10 9 9 9 10 10 9 9 9 10 12 13 13 15 15 14 14 14 15 16 17 17 17 18 18 20 22 23 23 22 20 19 18 17 17 17 16 17 17 18 20 20 18 16 15 16 17 18 18
8 9 7 6 6 9 9 6 4 4 10 10 5 4 7 8 8 10 11 11 12 11 11 10 10 10 11 12 13 12 11 10 10 10 10 10 11 10 9 10 10 10 10 10 10 10 11 12 12 12 14 14 13 13 15 16 18 18 17 18 18 18 19 21 22 22 21 20 19 19 18 17 16 16 16 16 16 18 20 21 20 17 16 17 19 20
Wind_Direction
7 50 51 28 16 18 24 23 359 331 309 309 319 339 333 322 325 325 323 333 341 330 321 342 29 76 67 63 69 76 93 99 104 97 76 47 13 343 337 336 338 338 337 333 324 321 321 319 320 320 318 316 315 316 316 318 318 316 316 314 313 313 310 308 305 302 299 298 299 298 295 299 301 299 296 292 287 284 286 290 294 305 312 317 326 329
39 55 56 22 1 348 1 3 347 327 308 322 348 342 331 329 325 312 314 336 339 330 321 336 33 81 71 68 73 76 88 87 84 77 58 10 338 334 336 335 336 334 332 330 326 323 320 318 319 318 320 322 324 324 323 321 319 317 316 315 314 313 311 307 304 301 298 294 293 294 293 294 295 295 294 290 286 281 280 281 282 293 303 310 321 326
56 57 49 15 345 318 287 355 352 338 316 350 5 344 331 333 327 304 316 338 331 319 315 329 16 87 83 81 79 75 82 77 72 66 29 341 333 341 341 334 332 330 328 328 326 325 322 320 322 327 333 334 332 328 324 322 321 322 322 321 320 318 314 310 306 303 299 293 288 288 290 290 290 291 292 291 287 279 275 274 277 289 293 299 314 319
50 46 28 350 328 349 359 11 1 346 337 42 11 349 332 330 331 318 328 331 324 329 338 326 359 115 105 100 93 86 92 93 95 58 335 340 344 348 341 334 331 329 325 325 326 326 325 328 338 344 341 335 332 328 327 328 330 331 331 331 328 324 319 314 310 306 303 297 289 286 286 284 283 284 284 284 282 276 275 277 282 290 289 294 307 311
68 42 1 325 344 8 5 15 11 350 347 80 36 351 324 322 324 308 314 322 319 42 53 330 315 140 132 119 107 109 116 122 149 332 346 353 352 346 336 331 329 327 326 326 328 328 331 341 346 341 335 332 333 333 334 337 337 336 335 333 331 327 324 320 316 313 309 304 296 289 286 282 279 278 278 279 281 282 284 284 285 288 291 297 302 303
69 53 345 346 9 14 7 18 17 348 329 62 25 343 317 314 317 308 316 322 317 40 56 335 328 15 134 130 112 127 129 69 18 358 353 351 348 341 333 330 328 326 328 329 329 329 334 340 335 331 332 332 333 335 338 339 337 335 332 329 326 323 322 322 322 322 319 312 304 297 291 285 280 279 280 280 283 286 285 283 283 286 291 298 301 302
56 56 27 8 6 11 10 18 19 350 323 344 344 327 313 313 314 312 319 317 325 337 331 356 348 338 151 131 118 133 112 9 8 354 345 344 345 342 335 331 329 328 331 331 329 330 334 333 330 330 332 332 333 337 338 335 331 328 327 324 319 314 312 313 315 318 321 317 310 304 298 290 282 280 281 282 282 285 284 282 282 284 288 294 298 301
26 30 39 12 3 14 6 1 10 347 323 339 331 319 313 313 310 309 310 303 325 322 288 32 5 327 303 112 131 153 314 330 356 350 340 339 340 340 336 332 331 331 332 331 327 330 333 331 330 331 333 334 334 334 334 333 332 331 328 324 318 314 313 314 313 312 313 313 311 308 306 304 296 287 285 287 288 288 287 285 285 287 289 291 292 295
15 20 36 9 5 16 353 339 350 340 333 329 318 310 303 303 298 288 291 304 317 304 306 7 3 325 314 63 151 189 319 332 349 348 339 337 338 337 335 333 333 331 331 330 324 328 333 333 333 335 336 337 333 329 329 332 335 335 330 324 323 324 325 324 321 315 309 309 312 312 320 330 329 317 308 305 303 300 296 292 290 291 291 291 290 290
57 35 32 2 15 6 334 325 332 337 330 316 314 312 300 293 288 271 268 307 305 299 341 356 357 332 320 9 160 260 350 347 340 337 335 335 334 333 333 333 332 329 331 327 321 327 332 332 334 334 333 333 331 327 326 328 331 333 330 325 327 331 329 328 331 332 329 327 326 326 332 338 339 337 332 325 317 312 306 300 297 295 293 292 291 289
103 78 43 19 39 354 315 299 264 258 298 315 326 326 313 287 284 266 224 302 310 331 357 351 348 329 313 350 74 26 27 359 334 324 329 332 331 332 334 333 330 329 330 326 325 331 332 332 336 333 328 329 328 326 327 329 330 330 328 326 327 328 326 324 333 341 342 340 337 337 338 337 334 333 330 323 316 312 307 302 298 296 294 292 291 290
134 146 161 100 58 334 314 302 221 223 289 335 343 335 330 290 280 266 222 346 337 340 350 349 340 314 301 321 31 68 72 360 341 327 326 331 333 332 332 331 329 329 330 329 330 332 332 335 337 333 329 329 330 328 329 329 329 329 327 326 326 327 326 325 328 333 332 332 331 331 332 330 328 326 321 315 309 305 302 298 297 296 295 293 291 290
152 154 116 138 169 336 337 347 12 219 325 356 356 353 0 1 354 345 345 351 329 321 341 343 330 304 305 345 59 69 42 349 342 332 329 333 332 330 331 329 328 331 333 333 333 333 334 335 335 333 331 332 334 332 330 330 330 330 329 328 327 327 328 327 326 325 325 326 326 325 327 326 324 321 316 312 306 303 301 298 297 296 294 293 291 289
106 121 95 174 187 11 12 17 13 355 359 7 7 6 8 6 353 336 336 337 309 309 327 327 320 308 316 2 119 58 29 354 335 335 337 337 333 331 330 327 329 333 333 333 335 333 331 332 334 335 335 336 336 333 331 331 331 332 331 330 328 327 330 331 329 328 326 325 324 323 324 322 319 314 310 307 303 301 299 297 295 294 293 291 290 288
322 85 31 3 18 24 33 50 9 323 340 16 15 3 6 20 342 312 322 325 309 309 315 319 339 327 323 27 115 85 56 3 341 342 342 338 336 334 329 327 332 333 332 335 337 333 332 333 334 335 336 337 335 334 333 331 331 333 331 329 327 326 328 330 330 329 325 323 321 319 318 315 312 310 307 305 301 299 298 297 295 293 291 290 289 289
304 313 79 51 55 50 58 70 3 322 317 7 8 5 6 1 282 273 281 284 289 298 306 322 340 324 331 112 130 122 38 2 348 346 343 339 338 335 330 331 333 333 333 335 336 334 335 336 334 333 336 335 334 335 336 333 332 332 330 329 328 325 325 327 328 327 325 323 321 318 317 315 314 313 311 307 303 302 300 298 296 293 291 290 289 289
321 340 129 111 71 64 77 81 40 21 6 340 1 7 341 303 269 280 281 277 282 291 304 327 319 318 346 138 161 191 350 348 343 346 345 339 338 337 332 334 335 335 334 335 337 336 335 335 334 333 335 334 335 336 335 333 333 331 329 329 328 326 326 327 327 327 326 325 323 321 320 319 318 316 312 309 306 304 302 299 296 293 291 291 290 290
325 298 157 132 85 88 103 89 73 54 24 7 15 345 314 242 216 291 304 306 307 301 301 312 314 319 330 325 197 335 341 339 340 345 344 338 339 337 333 335 336 335 335 337 339 336 335 336 336 335 335 334 336 335 330 330 332 332 329 327 327 327 327 327 328 326 325 324 322 321 320 319 318 315 311 309 307 304 301 299 296 294 292 291 291 290
300 292 148 131 99 128 150 119 85 68 50 67 107 335 327 271 303 319 320 319 319 315 306 306 319 320 322 333 340 339 335 335 339 342 341 338 338 336 334 336 337 335 338 341 339 336 337 338 337 336 334 333 333 332 329 329 331 333 330 326 325 326 326 327 327 325 324 324 322 320 319 318 316 315 312 309 307 305 301 299 297 294 293 292 291 290
280 289 99 169 146 150 184 221 338 48 81 132 168 30 1 318 309 303 268 305 320 318 309 311 317 320 341 350 336 326 326 335 340 339 337 336 336 335 335 336 337 336 338 343 339 337 338 338 337 334 334 335 332 327 329 331 332 333 331 327 326 326 325 326 327 326 324 323 322 320 319 318 316 314 312 309 308 306 302 300 298 295 293 292 290 289
263 247 298 269 174 164 190 339 12 31 85 151 328 11 2 349 205 218 222 294 339 316 311 314 304 305 5 22 306 318 332 341 340 335 333 333 333 334 333 335 338 333 337 344 340 336 339 338 333 331 332 335 330 326 330 331 330 330 329 327 327 325 325 326 326 326 325 323 322 321 320 319 317 315 313 310 308 305 303 301 299 297 295 293 291 289
279 247 286 303 292 233 75 64 73 90 81 7 341 3 15 21 3 322 313 133 326 299 301 301 289 298 331 173 289 335 343 340 337 333 331 332 331 331 331 334 336 331 337 345 339 336 340 336 328 329 335 334 327 326 331 332 331 330 327 327 327 325 324 325 324 324 324 322 320 320 319 318 317 316 313 311 309 306 305 303 301 300 298 294 292 290
331 277 272 291 315 68 74 66 75 90 92 71 272 168 163 64 20 343 321 306 304 292 285 273 274 291 209 182 311 346 346 336 336 334 331 331 330 330 330 332 335 332 334 340 338 337 338 332 327 332 339 334 326 326 330 330 330 328 326 326 325 323 323 323 322 321 321 320 319 319 318 317 317 315 313 311 309 307 305 304 303 301 298 296 293 290
217 267 279 288 280 119 94 65 72 84 107 179 184 154 155 155 138 295 294 309 306 291 296 287 272 285 240 238 327 345 342 335 337 334 332 332 329 328 329 330 335 335 331 334 339 338 333 328 328 333 336 331 327 328 330 329 327 325 326 325 324 323 323 322 321 321 320 319 318 318 317 317 316 314 313 311 308 307 306 304 303 302 299 297 294 291
222 298 314 316 327 138 128 22 145 201 245 220 173 135 138 145 165 225 232 244 277 293 321 305 269 274 300 319 331 337 335 334 334 333 334 332 326 326 327 328 333 332 328 335 341 337 330 329 331 332 330 328 326 326 329 330 326 325 325 324 324 323 322 321 321 320 319 318 317 317 316 317 316 314 312 310 308 306 306 305 303 301 299 297 295 293
278 312 329 336 343 336 320 316 313 304 287 257 161 150 153 151 165 214 264 267 282 316 325 283 261 277 298 313 325 331 332 333 331 330 333 330 325 324 323 326 331 327 327 336 340 334 330 330 330 328 327 327 325 323 326 327 325 325 324 323 324 322 320 321 320 319 318 317 316 316 316 317 316 314 312 309 308 306 305 304 302 301 299 297 295 293
275 283 276 277 291 298 296 295 302 309 298 286 258 176 164 160 170 197 264 273 291 312 294 256 258 286 300 310 322 330 333 331 328 328 329 327 324 324 322 325 327 324 326 334 336 333 331 328 328 329 327 326 325 322 323 325 324 325 324 323 324 323 320 320 320 318 317 316 316 316 316 317 315 313 311 309 308 306 304 303 301 300 299 296 294 292
284 277 269 264 260 269 281 284 290 294 282 279 281 245 183 167 166 183 228 258 290 307 281 264 279 292 297 308 320 328 331 329 326 325 325 325 324 322 322 321 321 322 327 335 336 332 328 326 328 329 325 325 329 325 321 323 323 323 323 323 323 322 321 320 319 318 316 315 316 316 316 316 314 312 310 308 307 306 304 303 301 300 298 295 292 289
296 285 66 323 272 274 277 275 276 276 269 271 275 265 234 194 181 194 225 244 257 260 263 280 294 292 292 304 317 325 327 324 320 318 320 322 321 320 320 318 317 318 326 335 336 328 324 326 327 325 322 326 330 326 321 321 322 322 323 322 322 322 320 320 319 317 316 315 315 315 315 314 313 311 309 308 307 306 304 303 302 299 297 294 290 287
292 271 73 333 286 286 281 272 266 262 265 269 265 261 256 230 212 217 234 243 247 252 262 279 286 284 288 302 313 319 320 316 313 315 318 318 319 319 318 316 315 315 321 331 333 327 324 325 324 321 321 324 325 322 319 320 321 322 321 320 321 321 320 319 318 316 315 315 315 314 314 313 312 310 309 308 307 306 304 304 302 300 297 294 290 287
286 349 65 319 289 293 282 260 258 259 264 272 271 262 252 243 235 235 243 249 254 259 268 280 285 283 287 305 312 314 315 314 314 316 316 317 317 316 314 313 314 316 318 323 328 327 324 323 322 320 321 322 320 318 318 318 319 320 319 319 321 320 319 319 317 315 315 314 314 314 313 313 312 311 310 309 307 306 305 304 302 300 298 295 293 289
250 292 321 292 302 306 278 236 283 291 276 269 270 259 239 228 229 232 238 246 255 267 277 280 280 284 300 316 313 309 312 316 317 316 315 314 313 311 312 313 314 316 318 319 323 327 325 323 321 321 321 320 317 316 317 318 319 318 318 319 320 319 318 318 317 316 315 313 313 313 313 313 313 311 309 309 308 308 307 304 302 301 299 296 295 292
295 296 311 332 304 301 315 315 314 316 294 265 255 235 222 218 225 235 245 252 256 265 273 271 271 288 306 312 308 307 314 316 314 314 314 311 308 307 308 311 314 316 316 315 318 324 326 324 321 320 319 317 315 315 317 317 316 316 317 318 318 317 316 317 317 316 314 313 313 313 313 313 312 311 310 309 310 309 308 306 303 302 301 299 297 294
164 281 308 347 291 289 311 314 305 290 281 317 64 169 203 215 225 237 254 264 267 264 256 257 270 286 297 302 303 306 309 309 308 309 308 302 299 303 305 309 313 313 311 311 313 318 323 324 320 317 317 315 315 315 315 315 314 314 315 315 316 316 315 315 316 315 313 314 314 313 314 314 311 310 309 309 310 310 307 305 304 304 304 302 300 297
193 255 282 326 263 280 306 316 306 298 315 98 102 136 190 221 231 248 264 264 260 259 255 257 268 278 287 294 298 299 298 300 301 298 293 289 284 291 298 305 311 312 310 311 312 315 320 321 318 316 316 316 316 315 315 314 314 313 314 315 314 313 314 314 314 313 313 313 313 314 314 314 312 311 309 308 309 309 307 305 304 306 307 305 301 298
238 280 292 267 246 275 311 327 305 303 310 139 152 164 174 230 245 263 275 262 244 245 248 251 262 273 285 291 291 292 296 298 293 282 269 258 256 275 293 303 309 312 311 312 312 313 318 320 317 314 314 315 315 315 313 313 314 314 314 314 312 312 313 314 313 313 314 314 314 314 314 314 312 311 309 308 308 308 307 306 305 308 309 307 304 300
235 260 298 281 245 281 309 294 272 283 282 170 167 196 182 207 250 263 285 279 248 231 229 241 261 272 283 288 288 293 298 295 293 273 193 197 240 280 297 303 307 309 310 312 311 309 314 318 315 313 315 315 312 312 313 313 314 313 311 311 311 311 312 313 313 314 315 315 315 315 314 314 312 310 309 308 308 307 307 306 306 307 309 307 305 303
226 255 297 301 269 252 302 302 296 295 293 164 156 171 157 158 254 214 273 282 246 205 209 232 255 267 279 287 290 300 303 296 302 336 143 188 276 305 305 305 307 306 308 312 310 307 312 317 316 314 314 312 310 311 312 313 313 311 308 308 309 311 312 312 312 314 315 314 314 314 314 313 311 310 309 307 307 306 306 306 305 306 308 306 304 303
220 258 250 259 269 260 287 303 302 293 304 119 150 159 147 143 167 184 268 275 190 183 204 224 243 261 277 286 286 295 302 295 302 330 40 314 312 311 304 303 305 306 307 309 305 306 312 317 317 316 314 311 311 312 312 311 310 308 306 308 310 310 311 312 314 315 314 313 313 313 313 312 311 309 308 306 305 305 306 305 304 305 306 305 303 302
199 231 216 228 257 247 245 275 271 270 285 136 147 155 145 137 147 200 297 304 165 187 206 214 236 261 271 274 271 257 256 272 292 313 329 318 306 298 296 297 299 303 306 304 302 305 311 316 316 314 312 312 313 312 311 309 307 305 305 307 309 309 310 313 314 314 312 312 313 313 312 312 311 309 307 305 305 305 306 306 304 305 305 305 304 303
193 204 212 237 263 244 231 260 270 266 269 144 142 143 140 145 168 262 307 353 161 195 201 205 237 262 256 247 251 242 247 266 286 299 305 300 293 292 293 291 290 293 298 299 301 304 308 312 313 309 307 310 311 310 309 307 305 304 304 304 305 307 310 313 313 313 312 312 312 312 312 312 310 308 307 305 305 306 306 306 306 306 305 305 304 303
192 190 209 234 253 239 234 255 268 271 233 135 135 139 148 176 267 292 299 141 183 216 211 212 235 252 241 237 243 249 261 274 281 286 288 284 283 288 289 288 288 290 294 297 298 303 310 313 310 306 306 310 311 309 308 306 303 302 302 301 302 305 309 311 311 312 312 312 311 311 311 311 310 309 308 307 307 307 307 308 308 307 306 307 307 307
171 220 250 238 224 241 248 245 281 302 166 141 137 140 176 215 271 320 299 260 241 224 223 233 239 235 231 240 248 254 264 273 275 277 278 273 273 279 282 284 287 288 292 295 294 302 313 314 308 305 306 310 310 309 308 306 302 300 300 300 303 307 309 309 310 311 311 311 310 310 310 310 310 310 309 307 308 308 308 309 310 309 311 313 312 313
177 213 273 281 183 209 256 239 270 330 149 160 169 209 221 222 242 293 285 277 263 223 217 239 242 224 220 238 253 258 263 267 269 271 272 269 268 272 276 280 282 284 290 292 290 297 308 308 304 303 304 306 308 309 308 304 300 299 299 300 305 310 309 309 310 310 310 309 310 310 309 309 309 310 310 309 311 311 309 310 313 314 316 316 314 317
191 190 299 302 222 221 265 267 278 316 161 178 203 240 249 244 243 242 253 264 263 240 215 224 241 228 214 229 248 257 257 259 263 264 264 266 267 268 272 275 276 281 286 286 287 295 303 303 299 299 300 302 304 306 305 302 299 298 299 303 308 310 309 310 310 309 308 308 309 309 309 309 309 309 309 311 312 312 312 313 316 318 319 318 318 323
203 152 86 278 252 267 272 263 260 269 263 233 224 233 248 254 241 216 232 245 246 234 213 213 235 229 211 220 237 247 250 253 259 260 259 263 264 262 265 269 271 275 279 282 286 293 301 300 296 295 297 299 302 304 302 299 297 298 300 306 311 311 311 311 310 309 308 309 310 311 310 311 311 310 311 313 314 313 313 315 317 319 320 321 324 328
188 155 196 240 254 286 274 251 239 250 260 260 248 235 235 240 230 212 221 233 235 228 213 207 218 219 215 221 230 242 250 251 254 257 257 259 261 259 260 262 265 270 276 281 284 291 299 299 295 294 296 298 302 304 300 296 296 297 301 307 310 312 313 312 312 311 310 310 312 313 313 313 314 314 314 316 317 317 317 318 318 318 319 320 322 324
154 153 219 240 232 237 259 271 273 269 267 267 260 243 228 228 222 213 217 226 225 217 207 200 202 207 214 222 227 238 248 247 247 253 255 253 255 256 256 256 258 266 273 278 281 286 292 292 290 292 295 296 300 302 299 297 297 299 302 306 309 312 313 314 314 313 310 310 312 314 315 315 315 316 317 317 318 319 319 319 317 315 314 315 316 319
107 171 223 238 242 251 264 270 273 274 271 261 248 238 234 231 218 208 210 213 210 207 203 201 203 207 216 224 225 232 242 244 242 244 247 249 250 250 252 254 256 262 270 275 276 277 281 284 285 288 290 292 296 298 297 296 298 301 305 307 310 313 314 315 316 314 311 311 312 314 318 318 316 317 318 318 319 319 317 316 317 315 314 316 319 324
149 221 222 220 254 262 262 255 252 273 281 275 255 233 226 222 212 203 202 204 207 208 204 203 208 212 219 225 223 225 236 242 237 236 238 241 242 244 249 252 254 260 267 270 270 270 272 276 279 282 286 290 293 295 295 296 299 303 306 309 312 315 315 317 318 316 314 313 313 314 318 317 316 318 319 320 322 322 321 322 323 322 322 324 327 331
200 220 196 187 231 255 264 255 208 237 274 286 286 226 207 197 196 203 205 205 208 207 202 204 210 212 216 222 221 220 229 237 233 231 233 235 235 238 243 246 250 257 262 263 264 266 267 269 272 275 281 287 290 292 294 296 299 304 310 312 314 315 316 318 319 316 315 314 312 313 315 315 316 319 320 321 324 325 325 327 328 330 332 333 334 337
Height
837 842 851 856 859 860 860 861 861 859 857 856 853 851 852 849 843 841 839 836 836 840 838 832 843 860 865 867 869 868 870 874 877 880 883 885 884 884 883 882 882 881 879 878 877 876 874 872 869 867 864 863 860 859 858 857 856 855 853 852 850 849 848 847 846 845 844 842 841 840 839 838 837 835 834 833 832 832 831 831 830 829 828 827 826 825
839 851 862 863 862 862 862 862 859 857 855 852 852 853 852 849 847 842 838 836 835 839 838 831 847 867 870 871 872 871 874 877 879 882 884 885 883 881 882 882 880 879 877 876 874 872 870 867 865 863 861 860 858 857 857 856 854 853 851 850 848 847 846 845 844 842 841 840 839 838 837 836 835 834 833 831 830 830 829 828 828 827 826 825 824 824
844 858 864 862 861 862 863 861 857 854 851 850 852 856 855 849 847 841 835 837 834 837 838 832 849 872 875 875 877 876 879 882 883 885 885 883 881 881 882 881 878 876 875 874 871 869 866 864 862 861 860 860 859 857 857 855 853 852 850 848 847 846 844 843 842 840 839 838 838 837 835 834 833 832 831 830 829 828 827 827 826 825 824 823 822 822
852 861 862 862 861 859 859 859 860 855 847 851 857 859 859 853 852 847 838 837 834 835 839 835 851 874 876 876 880 881 882 885 885 883 883 881 881 883 882 881 878 876 875 872 870 868 865 863 862 862 862 861 860 858 856 855 853 852 850 849 848 846 844 842 840 839 837 835 835 834 833 832 831 829 829 828 826 825 824 824 824 824 823 822 820 820
861 864 862 862 860 857 858 859 864 862 851 854 861 861 860 855 856 854 843 837 833 834 840 837 843 860 871 875 879 882 882 883 883 879 879 881 881 883 882 881 879 876 875 872 869 868 865 864 864 864 863 862 860 859 857 856 855 853 852 851 849 847 845 842 840 838 836 833 831 830 829 829 828 826 825 824 823 822 821 821 821 821 822 821 819 818
862 865 864 862 859 858 860 862 868 869 857 853 858 861 860 856 855 851 844 841 836 834 839 839 840 848 864 877 878 880 881 877 878 878 880 882 882 883 881 879 878 875 874 873 870 868 866 865 865 864 863 862 861 860 859 858 857 855 854 852 851 849 846 844 841 839 836 833 830 828 826 825 824 823 822 822 821 820 819 818 819 819 820 820 819 818
861 863 863 862 860 859 862 864 868 872 863 853 855 858 857 856 855 849 846 847 842 838 835 837 847 850 854 872 878 876 878 876 877 880 880 882 883 883 882 879 877 874 873 873 870 867 866 866 865 863 862 862 862 861 861 860 858 857 855 853 851 849 846 844 841 839 837 834 831 828 825 823 822 820 820 820 819 818 817 817 817 817 817 817 817 817
863 862 864 865 862 862 865 866 868 872 867 859 857 857 855 854 852 850 849 844 838 837 830 827 844 849 844 862 877 874 874 875 877 880 879 882 885 883 882 880 877 875 873 872 869 867 867 867 865 864 863 863 863 862 862 861 859 858 856 854 851 848 845 843 841 838 836 834 831 828 825 822 820 818 818 818 817 817 817 816 816 816 815 815 815 815
868 865 869 869 865 867 869 869 869 870 867 861 858 856 853 850 847 847 846 841 835 835 833 828 841 851 844 854 871 870 872 876 876 881 881 882 884 883 881 879 876 875 874 872 869 866 867 868 866 865 865 865 865 864 863 862 861 859 857 854 851 848 845 843 841 837 835 833 831 828 826 823 821 819 818 817 817 817 816 816 815 815 814 813 813 812
871 871 874 872 871 873 871 869 868 870 868 861 856 851 846 842 840 840 840 841 836 834 838 837 844 856 851 852 863 867 874 883 882 883 883 882 883 882 880 877 876 874 873 872 868 866 867 868 868 867 867 867 866 865 864 862 861 860 857 854 850 849 846 844 841 837 834 832 831 828 826 824 822 820 819 818 818 817 817 816 815 814 813 812 811 810
872 876 878 874 875 876 872 868 866 869 866 858 854 847 841 839 837 835 836 839 837 834 840 841 846 860 856 849 861 874 883 889 888 885 883 882 882 881 880 878 876 874 872 871 868 866 868 869 869 869 868 867 866 865 864 863 861 860 857 854 851 850 847 844 842 839 836 834 832 829 827 825 824 822 821 820 819 818 817 816 815 813 812 811 809 808
872 873 874 874 877 876 870 862 861 867 863 858 857 850 842 838 834 831 830 838 847 844 840 841 848 857 851 845 859 877 884 886 888 888 884 883 883 881 880 878 876 874 872 871 869 868 869 869 870 870 868 867 866 864 864 863 861 859 857 854 851 849 847 844 842 839 837 835 832 830 828 826 824 823 821 820 819 818 817 815 814 812 810 809 808 806
867 871 873 876 877 875 868 859 858 862 859 859 859 854 850 847 847 846 841 847 855 847 840 845 852 853 848 853 868 877 880 883 886 886 884 885 885 882 880 878 876 875 874 872 871 870 870 871 871 869 868 867 865 865 864 862 861 858 856 854 851 849 846 844 841 839 836 834 832 830 828 826 824 823 821 820 819 817 816 814 812 811 809 807 806 804
862 869 872 872 874 874 871 868 868 867 865 866 865 866 868 872 881 876 862 863 862 849 844 848 853 853 847 858 874 876 879 883 884 884 885 886 885 882 881 879 877 876 875 874 872 872 871 871 871 870 869 867 866 865 864 862 860 858 856 853 851 848 846 844 841 838 836 834 832 830 828 826 824 823 821 819 818 816 814 813 811 809 807 805 803 802
864 865 870 871 873 876 876 878 882 878 873 872 873 875 876 886 901 893 878 882 878 865 856 851 856 858 852 861 875 878 879 881 882 883 884 884 884 883 881 879 878 877 876 875 874 874 873 872 871 871 870 869 867 866 863 862 860 858 856 853 851 848 845 843 841 838 836 833 832 829 827 826 824 822 820 818 816 814 813 811 809 807 805 803 801 800
861 860 875 878 875 878 880 883 883 876 874 873 872 878 883 888 897 894 886 886 884 877 861 849 852 853 855 869 876 875 876 878 880 881 882 883 882 882 881 879 879 878 876 875 875 874 874 873 872 871 871 870 867 865 863 862 859 857 855 852 850 848 845 843 840 838 835 833 831 828 826 824 822 820 818 816 815 813 811 809 807 805 803 802 800 798
867 861 874 880 879 881 882 882 882 878 877 877 877 886 891 890 892 893 887 876 878 880 860 847 854 851 855 870 872 871 875 875 878 878 879 882 880 880 881 879 879 878 876 875 874 874 874 873 873 872 871 869 866 865 864 861 859 857 854 852 849 847 844 842 840 837 835 832 830 827 825 823 821 819 817 815 813 812 810 808 806 804 802 800 798 796
886 869 865 873 879 884 884 883 885 885 882 881 887 893 889 889 892 891 889 885 886 884 864 855 868 864 858 862 864 870 876 876 877 876 877 880 879 880 880 878 880 879 876 875 874 875 874 873 873 872 871 869 866 866 864 860 858 856 854 851 849 846 844 841 839 836 834 831 829 826 824 822 820 818 816 814 812 810 808 806 804 802 800 798 796 794
896 875 862 869 876 883 887 883 883 887 888 888 893 896 892 895 896 890 896 904 901 894 877 865 870 866 857 859 867 875 879 876 874 874 876 878 878 878 878 878 880 878 874 874 874 874 873 872 873 872 870 868 867 865 863 859 856 854 853 851 848 846 843 840 838 835 833 830 828 825 823 821 819 816 814 812 810 808 806 804 802 800 798 796 794 792
895 882 868 868 872 879 881 876 874 880 889 892 891 894 895 896 901 901 905 907 905 906 897 880 870 859 855 866 875 879 878 873 872 874 876 878 877 878 878 877 879 877 873 872 874 873 872 872 873 872 869 867 866 864 861 858 856 853 851 849 847 845 842 840 837 834 832 829 827 824 822 820 817 815 813 810 808 806 804 802 799 797 796 794 792 790
896 887 874 865 864 868 871 872 871 875 886 890 891 898 900 896 897 900 901 904 911 916 908 896 882 860 858 873 876 873 872 870 873 876 875 877 878 877 878 877 878 877 871 870 874 872 870 873 873 871 869 867 866 864 860 858 856 853 851 848 846 843 841 838 835 833 830 828 825 823 820 818 816 813 811 808 806 804 802 800 797 795 793 791 789 788
894 887 879 868 860 861 870 880 881 882 888 890 892 900 903 901 899 899 902 906 912 913 908 911 904 872 861 871 868 865 869 870 873 876 875 877 877 876 878 877 877 877 871 870 874 871 870 873 872 868 868 867 866 863 859 857 854 853 851 848 845 843 840 837 834 832 829 827 824 822 819 817 814 812 809 806 804 802 799 798 795 793 791 788 787 785
902 894 884 872 866 871 882 887 886 887 890 893 896 898 900 904 903 904 907 905 908 911 905 912 908 875 858 864 861 861 868 870 873 876 875 876 876 875 876 875 876 877 874 872 872 871 872 873 870 867 867 867 866 862 860 857 854 852 850 847 844 842 839 836 834 831 829 826 823 820 818 815 813 810 808 805 802 800 797 795 793 791 789 786 784 782
906 897 883 868 867 883 896 897 895 897 897 895 896 897 900 906 906 907 911 912 917 915 904 907 902 869 850 855 856 858 866 870 872 874 874 874 875 875 875 874 874 875 874 870 869 872 874 872 868 867 867 867 865 862 859 857 855 852 849 847 844 841 838 836 833 830 828 825 822 819 816 814 811 808 806 803 800 798 795 793 791 789 786 784 781 779
899 885 877 867 861 871 881 885 890 897 897 889 890 899 903 908 914 915 914 918 915 901 897 908 897 863 848 851 853 859 866 869 871 873 873 874 874 874 873 873 874 875 872 867 867 873 873 869 868 868 866 866 864 861 858 856 854 852 849 846 843 840 838 835 832 830 827 824 821 818 815 812 810 807 804 802 799 796 794 791 789 786 784 781 779 776
898 882 878 876 871 869 866 865 868 876 879 875 884 903 908 911 916 912 908 910 901 889 896 906 888 858 849 853 856 861 866 868 871 872 872 874 873 872 873 872 873 874 872 867 867 871 871 869 868 867 866 865 863 861 858 856 854 850 848 846 843 840 837 834 832 829 826 823 820 817 814 811 808 805 803 800 797 794 792 789 786 784 781 779 776 773
900 888 882 879 879 878 872 867 865 867 872 870 876 895 906 912 915 911 906 900 891 893 897 890 877 863 854 855 858 861 866 870 871 870 871 872 872 871 871 872 872 873 871 869 868 869 869 868 866 865 865 864 862 861 858 855 853 850 847 844 842 840 837 833 831 828 825 822 819 816 813 810 807 804 801 798 795 792 790 787 784 781 779 776 773 770
898 887 886 886 885 882 877 874 872 873 875 872 872 884 898 910 916 916 908 892 890 903 892 868 867 870 861 857 859 862 867 870 870 870 871 870 870 870 870 870 871 871 869 867 867 868 869 867 864 864 863 859 858 859 857 854 852 849 846 844 841 839 836 833 831 827 825 821 818 815 812 809 806 803 800 797 793 791 788 785 782 779 776 773 770 767
900 888 893 899 893 887 883 879 874 872 871 869 871 876 885 898 910 912 904 891 893 903 888 867 870 874 864 859 860 863 868 870 870 870 869 868 868 868 868 869 869 869 868 865 866 868 867 865 864 864 861 857 856 857 855 853 850 848 845 843 840 838 835 833 830 826 824 820 817 814 811 808 805 801 798 795 792 789 785 782 779 776 773 770 767 764
904 890 900 908 900 888 879 871 869 871 871 870 872 875 876 884 894 898 897 891 890 891 881 873 875 872 864 860 861 864 867 869 869 867 867 868 867 867 867 868 868 868 868 867 867 867 865 864 863 862 859 857 857 856 854 851 849 846 844 841 839 837 834 832 829 826 823 819 816 814 810 807 804 800 797 794 790 787 783 780 777 773 770 767 764 761
905 895 902 910 900 881 868 867 868 868 871 873 872 873 875 879 884 888 890 888 886 883 877 876 877 869 860 857 860 863 865 866 867 866 866 866 866 866 867 867 867 867 867 868 868 867 865 863 862 860 858 857 857 855 852 850 848 845 843 840 838 835 833 830 828 824 821 818 815 812 809 806 802 799 795 792 789 785 781 778 774 771 767 764 760 757
907 899 897 903 895 870 860 866 865 864 875 883 881 875 873 876 880 881 880 879 880 879 876 878 875 863 852 854 859 861 863 865 865 865 866 865 865 866 866 866 867 866 866 867 867 865 863 862 861 858 857 857 856 854 851 849 846 843 841 839 836 834 831 828 826 823 820 817 814 811 808 804 801 797 794 790 787 783 779 775 772 768 764 760 757 754
911 902 894 899 894 870 858 860 863 871 874 866 863 864 863 867 872 872 871 870 869 871 873 870 862 852 850 856 859 859 861 864 865 864 865 865 864 865 865 866 866 866 866 866 866 864 861 859 859 857 856 856 854 852 850 847 845 842 840 837 834 832 829 826 824 821 818 816 813 809 806 803 800 796 792 789 786 782 778 773 769 765 762 758 754 751
917 909 898 899 896 876 863 863 868 870 854 838 844 853 854 859 865 866 866 863 861 862 863 859 851 850 854 856 858 860 861 863 863 863 863 863 863 863 864 865 865 865 865 864 864 863 860 857 858 857 856 854 852 850 848 846 844 841 838 836 833 830 828 825 822 820 816 814 811 808 805 802 799 795 791 787 784 781 776 772 767 763 759 756 752 749
913 908 900 904 904 884 868 869 866 849 837 846 858 857 856 860 862 864 863 859 859 859 857 855 852 851 854 856 857 860 861 862 863 861 860 861 862 863 864 863 863 863 863 863 863 862 860 858 857 856 854 852 850 848 847 844 842 840 836 834 831 828 826 823 820 818 815 812 809 806 803 800 797 793 789 785 782 779 775 770 766 762 758 754 751 747
908 905 900 900 897 882 871 874 866 840 835 858 868 862 866 869 866 868 863 852 852 855 853 853 852 851 854 856 857 859 860 863 862 857 857 859 860 862 862 861 861 861 861 861 861 861 859 857 856 855 852 850 848 847 845 843 840 838 835 832 829 826 824 821 818 815 813 810 807 804 802 799 795 791 787 783 780 777 773 769 765 761 757 753 749 746
907 904 901 896 889 884 880 873 861 840 833 852 864 862 865 866 863 869 866 850 843 847 850 851 850 852 854 855 857 860 863 863 857 850 854 858 858 859 860 859 860 859 859 860 860 860 858 856 855 854 850 849 847 845 843 841 839 836 833 830 827 824 821 819 816 813 810 808 805 802 800 797 793 790 786 782 779 776 772 768 764 760 757 753 748 744
909 904 903 896 886 886 886 874 863 848 831 838 855 859 861 863 863 871 874 857 840 840 847 849 850 852 854 854 856 860 863 861 850 843 850 856 855 856 857 857 858 858 858 858 858 858 857 854 853 852 849 847 845 843 841 839 836 834 831 828 826 822 819 816 813 811 808 805 803 800 797 795 791 788 784 781 777 774 771 767 763 759 756 753 748 744
912 907 908 905 893 888 887 879 872 856 834 835 853 861 863 866 868 875 870 847 835 841 846 848 851 851 851 853 856 860 863 858 845 840 848 853 852 854 855 855 856 856 856 857 856 855 854 852 851 849 848 846 843 841 839 836 834 832 829 826 824 821 818 815 812 809 806 803 800 797 794 792 789 786 783 779 775 772 769 765 762 758 755 752 748 743
912 907 904 901 891 885 887 882 868 847 831 838 856 861 862 867 875 870 843 822 832 845 844 844 849 848 848 851 855 858 859 852 843 842 846 850 851 852 853 853 854 854 854 854 854 853 852 850 849 847 845 844 841 839 837 834 832 829 826 824 822 819 817 814 810 808 804 801 798 795 792 790 787 784 781 777 773 770 767 764 761 757 754 751 747 743
899 903 898 894 885 879 881 881 866 842 832 842 855 859 863 871 870 850 822 817 836 842 838 843 846 843 845 850 851 851 849 845 844 844 846 849 850 849 850 851 852 852 852 852 852 851 849 848 847 846 843 842 839 837 835 832 830 827 824 822 820 817 815 812 809 806 803 799 796 792 789 787 784 781 778 775 771 768 765 762 760 756 753 749 746 742
880 889 890 889 883 871 870 875 864 839 832 845 855 860 868 864 846 826 819 826 834 833 834 840 840 839 844 846 846 846 844 843 845 845 846 848 847 847 848 849 849 850 850 850 849 848 846 845 844 843 841 840 838 836 834 831 828 825 822 820 817 815 812 810 807 804 801 798 794 790 787 784 781 778 775 773 770 767 763 761 758 755 752 748 745 741
871 872 864 862 864 861 865 873 857 828 826 845 852 857 863 849 825 817 823 827 827 829 833 835 835 838 842 841 842 844 842 843 845 844 844 846 845 845 846 846 847 848 847 847 848 846 845 843 842 840 839 837 836 834 832 830 827 824 821 818 815 813 810 807 805 802 799 796 792 789 785 781 778 776 773 771 768 765 762 759 757 754 751 748 744 741
872 864 847 844 854 858 856 850 830 813 823 840 837 833 836 829 818 820 825 823 823 827 830 830 832 836 838 839 841 841 841 843 843 842 843 844 843 844 844 843 845 845 844 845 845 844 843 842 840 838 837 835 834 832 831 829 826 822 820 816 814 811 809 806 803 799 796 794 790 787 783 780 776 774 771 769 766 764 761 758 756 753 751 748 745 741
860 859 852 850 855 852 840 825 814 812 822 832 826 818 817 818 818 822 823 822 823 825 826 829 831 832 836 839 839 839 840 841 840 841 842 841 841 842 842 842 842 842 842 843 842 841 841 840 838 837 834 833 832 831 829 827 824 821 818 815 813 810 807 804 801 797 793 790 787 785 782 778 775 772 769 767 765 762 760 757 755 753 750 748 745 741
854 861 863 858 854 848 835 821 817 817 817 818 819 817 815 815 817 820 821 821 821 822 824 827 828 829 834 836 836 838 838 837 838 839 839 839 840 840 840 840 840 839 840 840 839 839 839 838 837 835 832 831 830 828 827 825 823 820 817 814 812 809 806 803 800 796 791 787 784 782 779 777 774 770 767 765 763 761 759 757 755 753 750 748 745 742
856 864 864 858 855 851 832 813 812 815 812 811 813 813 814 816 816 818 820 819 818 820 822 824 826 829 831 833 834 835 834 835 836 836 836 838 838 837 838 838 837 837 837 837 836 836 835 835 834 833 831 829 828 826 825 823 820 818 816 813 811 807 804 802 799 794 790 786 782 779 777 775 772 769 766 763 761 759 758 756 754 752 750 747 745 742
854 865 862 853 851 845 826 809 810 812 809 808 810 809 811 813 813 815 817 816 817 820 821 822 825 827 829 830 831 831 831 832 833 833 834 835 835 835 836 836 835 836 835 834 834 833 832 832 832 830 829 828 825 824 823 820 818 817 814 812 809 806 803 800 797 794 790 785 781 777 775 773 771 768 765 762 759 757 756 754 753 751 749 747 745 742
860 863 852 844 844 838 823 812 810 809 805 803 804 804 805 807 809 812 814 815 817 818 819 821 823 824 826 827 827 828 829 829 829 831 832 832 833 834 834 833 834 833 832 831 831 830 830 829 829 828 827 825 824 823 820 818 817 815 812 810 808 805 802 799 796 793 789 785 781 777 773 771 769 767 764 761 758 755 754 753 752 750 748 746 744 742
858 850 841 844 843 831 816 807 805 805 800 793 794 799 801 804 807 810 812 814 815 815 817 819 820 822 824 824 824 826 826 825 827 828 828 829 830 830 830 831 831 830 830 829 828 827 827 827 826 825 824 823 822 821 818 817 815 812 811 809 806 804 802 798 795 791 788 785 782 778 774 771 767 765 764 761 758 755 751 750 750 749 747 745 743 741
841 830 828 834 827 811 800 797 800 802 797 791 792 797 800 802 806 808 808 810 811 811 813 815 817 819 820 821 822 823 822 822 824 824 825 826 826 826 827 828 827 827 827 827 826 825 824 824 823 822 821 820 819 818 816 814 812 810 809 807 804 803 801 798 795 791 787 785 782 778 775 771 767 765 763 761 759 756 751 748 746 745 745 744 741 739